[[{"header":{"parameterUnit":"m.s-1","parameterCategory":1,"la1":30.2991,"la2":30.254,"lo1":-89.0895,"lo2":-89.0444,"dy":0.0017,"dx":0.0017,"nx":28,"ny":28,"refTime":"2024-08-30T03:00:00:Z","depth":0,"parameterNumber":2,"parameterNumberName":"U-component_of_WINDS"},"data":[0,0,0,0,0,0,0,0,0,0,0,0,0,0,0,0,0,0,0,0,0,0,0,0,0,0,0,0,0,0,0,0,0,0,0,0,0,0,0,0,0,0,0,0,0,0,0,0,0,0,0,0,0,0,0,0,0,0,-3.9974,-3.9975,0,-4.0147,-4.0149,-4.0151,-4.0114,-4.0111,-4.0108,-4.0105,-4.0292,-4.0299,-4.0307,0,0,0,0,0,0,0,0,0,0,0,0,0,-3.9623,-3.963,-3.9973,-3.9976,-3.9978,-4.0146,-4.0149,-4.0151,-4.0115,-4.0111,-4.0107,-4.0103,-4.0289,-4.0298,-4.0308,0,0,0,0,0,0,0,0,0,0,0,0,0,-3.9784,-3.9632,-3.9973,-3.998,-3.9982,-4.0146,-4.0149,-4.0152,-4.0116,-4.0111,-4.0106,-4.0101,-4.0286,-4.0298,-4.0309,-4.048,0,0,-4.0346,-4.0351,0,0,0,0,0,0,0,0,-3.9775,-3.9797,-3.9977,-3.998,-3.9982,-4.0104,-4.0094,-4.0262,-4.0117,-4.0065,-4.0105,-4.0099,-4.0234,-4.025,-4.0293,-4.0489,-4.0497,-4.0347,-4.0354,-4.0359,-4.0363,0,0,0,0,0,0,0,-3.9764,-3.9789,-4.0042,-3.9979,-3.9983,-3.9978,-3.9995,-4.0125,-4.0175,-4.0069,-4.0067,-4.0088,-4.0234,-4.0282,-4.0297,-4.05,-4.0347,-4.0357,-4.0365,-4.0369,-4.0849,-4.0854,0,0,0,0,0,0,-3.9748,-3.978,-4.0037,-4.0047,-3.9864,-3.9988,-4.0008,-4.007,-4.0173,-4.0184,-4.0091,-4.0085,-4.0263,-4.0283,-4.0304,-4.0512,-4.0359,-4.0371,-4.0377,-4.0843,-4.085,-4.0856,0,0,0,0,0,0,-3.9741,-3.9772,-4.003,-3.9913,-3.9946,-3.9999,-4.0069,-4.0076,-4.0123,-4.019,-4.02,-4.013,-4.026,-4.0287,-4.0437,-4.0517,-4.0376,-4.0387,-4.0837,-4.0845,-4.0853,-4.0928,0,0,0,0,0,0,-3.9731,-3.9769,-3.9831,-3.9915,-3.9952,-4.0156,-4.0074,-4.0083,-4.0142,-4.0136,-4.0228,-4.0239,-4.0259,-4.0419,-4.0449,-4.0531,-4.0396,-4.0829,-4.084,-4.085,-4.0918,-4.0938,-4.0954,0,0,0,0,0,-3.9719,-3.9847,-3.9835,-3.9866,-4.003,-4.0161,-4.0183,-4.0199,-4.0149,-4.0214,-4.0258,-4.0236,-4.0504,-4.0435,-4.0468,-4.0555,-4.0824,-4.0837,-4.0849,-4.091,-4.0934,-4.0954,0,0,0,0,0,0,-3.9774,-3.9858,-3.9845,-4.0004,-4.0075,-4.0154,-4.0236,-4.0224,-4.0313,-4.0304,-4.0325,-4.0346,-4.0499,-4.0543,-4.0463,-4.0728,-4.0658,-4.0677,-4.0693,-4.0716,-4.0733,-4.0719,-4.0406,0,0,0,0,0,-3.9805,-3.99,-3.997,-4.0103,-4.014,-4.0182,-4.024,-4.0247,-4.0323,-4.0354,-4.0408,-4.0486,-4.0588,-4.0655,-4.0752,-4.0926,-4.0947,-4.1003,-4.1021,-4.1035,-4.1052,-4.1149,-4.1175,-4.0897,-4.0897,-4.0896,0,0,-3.9869,-3.9927,-3.9986,-4.0116,-4.0172,-4.0274,-4.0208,-4.0318,-4.0395,-4.0372,-4.0515,-4.0559,-4.0648,-4.081,-4.0885,-4.0852,-4.1134,-4.1051,-4.1062,-4.1071,-4.1165,-4.1191,-4.1215,-4.0905,-4.0904,-4.0902,0,0,-4.0038,-4.009,-4.0208,-4.0266,-4.0351,-4.0379,-4.0408,-4.049,-4.0517,-4.0661,-4.0647,-4.0741,-4.0916,-4.098,-4.1035,-4.1233,-4.1217,-4.1265,-4.1358,-4.1453,-4.1475,-4.1494,-4.1566,-4.1591,-4.1282,-4.1282,-4.1282,0,-4.0108,-4.0256,-4.0271,-4.0383,-4.0442,-4.0424,-4.0545,-4.0602,-4.0716,-4.0759,-4.072,-4.094,-4.0999,-4.1177,-4.1225,-4.1271,-4.1307,-4.1253,-4.147,-4.149,-4.1508,-4.1577,-4.1604,-4.1287,-4.1286,-4.1286,-4.1285,0,-4.0339,-4.0444,-4.0529,-4.0637,-4.0706,-4.0822,-4.0858,-4.0927,-4.093,-4.0964,-4.1114,-4.1184,-4.1295,-4.1339,-4.1344,-4.152,-4.1497,-4.1464,-4.1393,-4.154,-4.1604,-4.1631,-4.1294,-4.1292,-4.1291,-4.129,0,0,-4.0544,-4.066,-4.0691,-4.0741,-4.0836,-4.0918,-4.1037,-4.1144,-4.1203,-4.1285,-4.1386,-4.1536,-4.1507,-4.157,-4.1583,-4.1666,-4.182,-4.1623,-4.1626,-4.1657,-4.2021,-4.2044,-4.2074,-4.1811,-4.1816,-4.182,-4.2013,0,-4.0721,-4.0924,-4.0942,-4.1126,-4.1225,-4.1212,-4.1315,-4.1387,-4.1423,-4.1515,-4.1557,-4.1662,-4.1615,-4.1654,-4.1736,-4.1783,-4.1893,-4.177,-4.1908,-4.1913,-4.1884,-4.2107,-4.2131,-4.231,-4.2039,-4.2043,-4.2046,0,-4.0953,-4.1039,-4.1232,-4.1315,-4.1357,-4.1449,-4.155,-4.1637,-4.1721,-4.1742,-4.1814,-4.1816,-4.1942,-4.1868,-4.2044,-4.196,-4.2019,-4.2052,-4.2059,-4.2071,-4.1987,-4.2125,-4.2367,-4.2393,-4.2086,-4.2083,-4.208,0,-4.1083,-4.1248,-4.1384,-4.1428,-4.1528,-4.1594,-4.1639,-4.1717,-4.1782,-4.1872,-4.1915,-4.202,-4.2078,-4.2162,-4.2194,-4.2137,-4.2369,-4.2298,-4.2392,-4.2392,-4.244,-4.2436,-4.2693,-4.248,-4.2479,-4.2479,-4.2478,0,-4.1278,-4.1397,-4.1444,-4.1528,-4.1663,-4.1685,-4.1819,-4.1862,-4.1933,-4.2028,-4.2026,-4.2117,-4.2154,-4.2252,-4.228,-4.2422,-4.2449,-4.2471,-4.2477,-4.2471,-4.2468,-4.2508,-4.2496,-4.2486,-4.2484,-4.2483,-4.2482,0,-4.1444,-4.1481,-4.1629,-4.1713,-4.1737,-4.1832,-4.1906,-4.199,-4.2026,-4.2147,-4.2177,-4.2235,-4.2351,-4.2392,-4.2533,-4.2552,-4.2717,-4.2713,-4.2688,-4.2689,-4.2781,-4.2771,-4.3072,-4.3113,-4.2873,-4.2875,-4.2877,0,-4.1565,-4.1656,-4.1749,-4.1811,-4.1859,-4.196,-4.2025,-4.2053,-4.2122,-4.2226,-4.2298,-4.2412,-4.2505,-4.2691,-4.2749,-4.2858,-4.2856,-4.2954,-4.2872,-4.2864,-4.2857,-4.2851,-4.2861,-4.2969,-4.2971,-4.2973,-4.2975,0,-4.1776,-4.179,-4.1882,-4.1982,-4.206,-4.2141,-4.222,-4.2272,-4.2313,-4.2392,-4.2508,-4.258,-4.2724,-4.2839,-4.2951,-4.3003,-4.2998,-4.3001,-4.3028,-4.3022,-4.3003,-4.3014,-4.2728,-4.2993,-4.2991,-4.299,-4.2989,-4.2988,-4.1923,-4.2004,-4.2082,-4.2186,-4.2248,-4.2323,-4.2405,-4.2452,-4.2549,-4.2665,-4.2679,-4.2805,-4.2891,-4.304,-4.3098,-4.32,-4.3173,-4.3213,-4.3223,-4.3233,-4.3239,-4.2988,-4.3221,-4.3221,-4.322,-4.322,-4.322,0,-4.2133,-4.2183,-4.2279,-4.2388,-4.2472,-4.2457,-4.2544,-4.2616,-4.2726,-4.2805,-4.2896,-4.3032,-4.3145,-4.3212,-4.3325,-4.3395,-4.3395,-4.3424,-4.3418,-4.3431,-4.3256,-4.3221,-4.3421,-4.3421,-4.3421,-4.3421,-4.3421,-4.3421,-4.2252,-4.2388,-4.2412,-4.2581,-4.2632,-4.2753,-4.2804,-4.2875,-4.2938,-4.3088,-4.3181,-4.3223,-4.3299,-4.3419,-4.3523,-4.354,-4.3582,-4.3613,-4.3628,-4.3464,-4.3443,-4.3423,-4.3389,-4.3622,-4.3622,-4.3794,-4.3795,-4.3797]},{"header":{"parameterUnit":"m.s-1","parameterCategory":1,"la1":30.2991,"la2":30.254,"lo1":-89.0895,"lo2":-89.0444,"dy":0.0017,"dx":0.0017,"nx":28,"ny":28,"refTime":"2024-08-30T03:00:00:Z","depth":0,"parameterNumber":3,"parameterNumberName":"V-component_of_WINDS"},"data":[0,0,0,0,0,0,0,0,0,0,0,0,0,0,0,0,0,0,0,0,0,0,0,0,0,0,0,0,0,0,0,0,0,0,0,0,0,0,0,0,0,0,0,0,0,0,0,0,0,0,0,0,0,0,0,0,0,0,-0.8425,-0.8424,0,-0.8302,-0.83,-0.8299,-0.8269,-0.827,-0.8271,-0.8272,-0.8132,-0.8127,-0.8123,0,0,0,0,0,0,0,0,0,0,0,0,0,-0.8623,-0.8619,-0.8425,-0.8424,-0.8422,-0.8302,-0.83,-0.8299,-0.8269,-0.827,-0.8271,-0.8272,-0.8133,-0.8128,-0.8122,0,0,0,0,0,0,0,0,0,0,0,0,0,-0.8522,-0.8618,-0.8426,-0.8394,-0.839,-0.8302,-0.83,-0.8298,-0.8269,-0.827,-0.8272,-0.8273,-0.8135,-0.8128,-0.8122,-0.8053,0,0,-0.8101,-0.8098,0,0,0,0,0,0,0,0,-0.8527,-0.8514,-0.84,-0.8396,-0.8391,-0.8303,-0.8318,-0.8216,-0.8269,-0.8314,-0.8272,-0.8273,-0.8187,-0.8176,-0.8149,-0.8047,-0.8041,-0.81,-0.8096,-0.8093,-0.8091,0,0,0,0,0,0,0,-0.8535,-0.8519,-0.8376,-0.8398,-0.8393,-0.8381,-0.8368,-0.8299,-0.8244,-0.831,-0.8308,-0.8295,-0.8184,-0.8156,-0.8146,-0.8039,-0.81,-0.8094,-0.809,-0.8087,-0.7871,-0.787,0,0,0,0,0,0,-0.8549,-0.8526,-0.838,-0.8372,-0.8464,-0.8376,-0.8362,-0.8329,-0.8245,-0.8234,-0.8294,-0.8294,-0.8167,-0.8154,-0.8141,-0.8053,-0.8093,-0.8087,-0.8083,-0.7873,-0.7871,-0.7869,0,0,0,0,0,0,-0.8553,-0.8536,-0.8385,-0.8448,-0.8428,-0.8372,-0.8335,-0.8326,-0.8298,-0.8233,-0.8221,-0.8275,-0.8167,-0.815,-0.8076,-0.8048,-0.8084,-0.8077,-0.7875,-0.7872,-0.787,-0.7879,0,0,0,0,0,0,-0.8559,-0.8538,-0.8515,-0.8448,-0.8425,-0.8326,-0.8334,-0.8323,-0.8288,-0.8287,-0.8212,-0.8201,-0.8167,-0.8086,-0.8069,-0.8039,-0.8072,-0.7877,-0.7874,-0.7871,-0.788,-0.7877,-0.7874,0,0,0,0,0,-0.8566,-0.852,-0.8514,-0.8496,-0.8395,-0.8325,-0.8311,-0.8277,-0.8286,-0.8259,-0.8217,-0.8203,-0.8055,-0.8079,-0.8059,-0.8027,-0.7878,-0.7874,-0.7871,-0.7882,-0.7877,-0.7874,0,0,0,0,0,0,-0.8579,-0.851,-0.8503,-0.8434,-0.8386,-0.832,-0.8286,-0.8273,-0.8218,-0.8219,-0.8174,-0.8158,-0.8085,-0.8049,-0.8077,-0.7955,-0.7966,-0.7958,-0.7981,-0.7976,-0.7973,-0.7981,-0.8066,0,0,0,0,0,-0.8575,-0.8528,-0.8469,-0.8413,-0.839,-0.8343,-0.831,-0.8289,-0.8235,-0.8213,-0.8165,-0.811,-0.805,-0.8012,-0.7953,-0.7876,-0.7857,-0.7844,-0.7841,-0.7838,-0.783,-0.7783,-0.7776,-0.7857,-0.7857,-0.7857,0,0,-0.8564,-0.8521,-0.8492,-0.8415,-0.8375,-0.8323,-0.8325,-0.827,-0.8229,-0.8203,-0.813,-0.8094,-0.8028,-0.7952,-0.7916,-0.7919,-0.7804,-0.7833,-0.7832,-0.7825,-0.7779,-0.7771,-0.7764,-0.7854,-0.7855,-0.7855,0,0,-0.8517,-0.8481,-0.843,-0.8391,-0.8333,-0.8301,-0.8289,-0.8225,-0.8201,-0.8129,-0.8108,-0.8056,-0.7956,-0.791,-0.7873,-0.7809,-0.7793,-0.7791,-0.7771,-0.7726,-0.772,-0.7714,-0.7687,-0.7679,-0.7785,-0.7785,-0.7785,0,-0.8508,-0.8434,-0.8404,-0.8351,-0.8315,-0.8295,-0.824,-0.8202,-0.8125,-0.8099,-0.8106,-0.7979,-0.7934,-0.7845,-0.7829,-0.7802,-0.7782,-0.7798,-0.7724,-0.7718,-0.7712,-0.7686,-0.7676,-0.7785,-0.7785,-0.7785,-0.7785,0,-0.8425,-0.8373,-0.8338,-0.827,-0.8231,-0.8177,-0.8135,-0.8098,-0.808,-0.8047,-0.7971,-0.7917,-0.7847,-0.7825,-0.7805,-0.7732,-0.7735,-0.7734,-0.7743,-0.7704,-0.7679,-0.7669,-0.7785,-0.7785,-0.7785,-0.7785,0,0,-0.8379,-0.8297,-0.8285,-0.8252,-0.8187,-0.8143,-0.8087,-0.8023,-0.799,-0.7938,-0.7887,-0.7803,-0.7801,-0.7759,-0.7734,-0.7695,-0.7644,-0.7697,-0.7695,-0.7686,-0.7555,-0.7554,-0.7544,-0.7634,-0.7633,-0.7631,-0.756,0,-0.8321,-0.8224,-0.8197,-0.8113,-0.8062,-0.8043,-0.7993,-0.7944,-0.7912,-0.7861,-0.7823,-0.7763,-0.7767,-0.7742,-0.7703,-0.7659,-0.7616,-0.7664,-0.758,-0.7578,-0.7594,-0.7531,-0.753,-0.7465,-0.755,-0.7548,-0.7547,0,-0.8239,-0.819,-0.8103,-0.8044,-0.8021,-0.7977,-0.7915,-0.7869,-0.7812,-0.7791,-0.7746,-0.7724,-0.7659,-0.7676,-0.7584,-0.7617,-0.7581,-0.7554,-0.7551,-0.7538,-0.7557,-0.7513,-0.7444,-0.7433,-0.7532,-0.7533,-0.7534,0,-0.821,-0.8122,-0.8058,-0.8032,-0.7961,-0.7931,-0.7899,-0.7845,-0.7807,-0.7752,-0.7726,-0.7663,-0.7626,-0.7575,-0.7535,-0.7552,-0.7445,-0.7459,-0.7421,-0.7422,-0.7396,-0.7397,-0.7316,-0.738,-0.738,-0.738,-0.7381,0,-0.8146,-0.8092,-0.8044,-0.8004,-0.7942,-0.791,-0.7848,-0.7815,-0.7767,-0.7716,-0.7695,-0.7647,-0.7599,-0.7543,-0.7512,-0.7438,-0.7422,-0.7399,-0.7391,-0.7399,-0.7401,-0.7372,-0.7374,-0.7378,-0.7378,-0.7379,-0.7379,0,-0.8101,-0.8068,-0.7996,-0.7937,-0.7921,-0.7877,-0.7824,-0.7782,-0.775,-0.7686,-0.7669,-0.7617,-0.7551,-0.7508,-0.7421,-0.74,-0.7318,-0.7312,-0.7338,-0.7333,-0.7296,-0.7298,-0.719,-0.7172,-0.7252,-0.7251,-0.7251,0,-0.806,-0.8019,-0.7956,-0.7924,-0.7893,-0.784,-0.7803,-0.7769,-0.7731,-0.7664,-0.7628,-0.7562,-0.7507,-0.74,-0.7351,-0.7285,-0.7274,-0.7241,-0.7264,-0.7273,-0.7269,-0.727,-0.7264,-0.7236,-0.7235,-0.7235,-0.7234,0,-0.7989,-0.7976,-0.7926,-0.787,-0.7827,-0.778,-0.7733,-0.7706,-0.7663,-0.762,-0.7554,-0.7512,-0.7426,-0.7358,-0.7288,-0.7249,-0.7232,-0.7229,-0.7215,-0.7221,-0.7236,-0.7224,-0.7324,-0.723,-0.723,-0.7231,-0.7231,-0.7231,-0.7942,-0.7904,-0.7855,-0.7799,-0.7761,-0.7717,-0.7675,-0.764,-0.7586,-0.7516,-0.7499,-0.7429,-0.7371,-0.7275,-0.7236,-0.7178,-0.7181,-0.7163,-0.7157,-0.7152,-0.715,-0.725,-0.7165,-0.7165,-0.7165,-0.7165,-0.7165,0,-0.7867,-0.7835,-0.7785,-0.7721,-0.7677,-0.7672,-0.7619,-0.758,-0.7521,-0.7471,-0.7419,-0.7341,-0.7276,-0.7223,-0.7154,-0.7117,-0.7107,-0.71,-0.7099,-0.709,-0.7153,-0.7169,-0.7109,-0.7109,-0.7109,-0.7109,-0.7109,-0.7109,-0.7822,-0.7757,-0.7737,-0.7651,-0.7618,-0.7554,-0.7523,-0.7481,-0.7441,-0.7358,-0.7305,-0.7274,-0.7221,-0.7148,-0.7086,-0.7072,-0.7045,-0.7038,-0.7021,-0.708,-0.7086,-0.7092,-0.7107,-0.7034,-0.7034,-0.6963,-0.6962,-0.6962]}]]